Vancouver, British Columbia

7:18 AM PDT on August 16, 2017 (GMT -0700)
Vancouver International Airport

Weather History for CYVR - February, 2014

Change the Weather History Date:

Wednesday, February 19, 2014

  Actual Average Record
Temperature  
Mean Temperature 42 °F -  
Max Temperature 46 °F 49 °F 53 °F (1998)
Min Temperature 37 °F 36 °F 24 °F (2006)
Degree Days  
Heating Degree Days 24    
Moisture  
Dew Point 33 °F    
Average Humidity 72    
Maximum Humidity 93    
Minimum Humidity 37    
Precipitation  
Precipitation 0.16 in 0.15 in - ()
Sea Level Pressure  
Sea Level Pressure 29.98 in    
Wind  
Wind Speed 10 mph ()    
Max Wind Speed 17 mph    
Max Gust Speed 24 mph    
Visibility 15.6 miles    
Events Rain    
Averages and records for this station are not official NWS values.
T = Trace of Precipitation, MM = Missing Value Source: Averaged Metar Reports

Daily Weather History Graph

Daily Weather History Graph

Search for Another Location

Airport or City:

Trip Planner

Search our weather history database for the weather conditions in past years. The results will help you decide how hot, cold, wet, or windy it might be!

Date:

Astronomy

Feb. 19, 2014 Rise Set
Actual Time 7:13 AM PST 5:39 PM PST
Civil Twilight 6:41 AM PST 6:12 PM PST
Nautical Twilight 6:04 AM PST 6:49 PM PST
Astronomical Twilight 5:27 AM PST 7:26 PM PST
Moon 11:09 PM PST (2/19) 8:56 AM PST (2/19)
Length of Visible Light 11h 30m
Length of Day
10h 25m
Waning Gibbous, 79% of the Moon is Illuminated
Feb 19
Waning Gibbous
Feb 22
Last Quarter
Mar 1
New
Mar 8
First Quarter
Mar 16
Full

Hourly Weather History & Observations

Time (PST) Temp. Windchill Dew Point Humidity Pressure Visibility Wind Dir Wind Speed Gust Speed Precip Events Conditions
12:00 AM 39.2 °F 31.2 °F 33.8 °F 81% 29.77 in 15.0 mi SSW 13.8 mph - N/A   Scattered Clouds
1:00 AM 39.2 °F 30.5 °F 32.0 °F 75% 29.80 in 15.0 mi South 16.1 mph - N/A   Mostly Cloudy
2:00 AM 39.2 °F 30.8 °F 33.8 °F 81% 29.81 in 15.0 mi SSW 15.0 mph - N/A   Overcast
3:00 AM 39.2 °F 31.6 °F 33.8 °F 81% 29.83 in 15.0 mi SW 12.7 mph - N/A   Scattered Clouds
4:00 AM 38 °F - 34 °F 79% 29.86 in 15 mi SW 10.4 mph - -   Scattered Clouds
4:00 AM 39.2 °F 32.5 °F 33.8 °F 81% 29.86 in 15.0 mi SW 10.4 mph - N/A   Scattered Clouds
5:00 AM 39.2 °F 32.0 °F 32.0 °F 75% 29.88 in 15.0 mi WSW 11.5 mph - N/A   Partly Cloudy
6:00 AM 39.2 °F 31.2 °F 33.8 °F 81% 29.90 in 15.0 mi SW 13.8 mph - N/A   Partly Cloudy
7:00 AM 37.4 °F 30.8 °F 32.0 °F 81% 29.93 in 15.0 mi WSW 9.2 mph - N/A   Partly Cloudy
8:00 AM 39.2 °F 34.2 °F 32.0 °F 75% 29.95 in 20.0 mi WSW 6.9 mph - N/A   Partly Cloudy
9:00 AM 41.0 °F 37.1 °F 33.8 °F 76% 29.98 in 15.0 mi SW 5.8 mph - N/A   Partly Cloudy
10:00 AM 43 °F - 34 °F 61% 30.01 in 15 mi WSW 11.5 mph - -   Scattered Clouds
10:00 AM 42.8 °F 37.0 °F 33.8 °F 70% 30.01 in 15.0 mi WSW 10.4 mph - N/A   Scattered Clouds
11:00 AM 42.8 °F 37.5 °F 33.8 °F 70% 30.03 in 15.0 mi SW 9.2 mph - N/A   Scattered Clouds
12:00 PM 44.6 °F 39.7 °F 32.0 °F 61% 30.05 in 20.0 mi SW 9.2 mph 18.4 mph N/A   Scattered Clouds
1:00 PM 44.6 °F 40.7 °F 32.0 °F 61% 30.06 in 20.0 mi SW 6.9 mph - N/A   Scattered Clouds
2:00 PM 46.4 °F 43.5 °F 32.0 °F 57% 30.06 in 15.0 mi SW 5.8 mph - N/A   Scattered Clouds
3:00 PM 46.4 °F 42.4 °F 30.2 °F 53% 30.06 in 20.0 mi South 8.1 mph 18.4 mph N/A   Scattered Clouds
4:00 PM 46 °F - 28 °F 37% 30.07 in 19 mi South 6.9 mph - -   Scattered Clouds
4:00 PM 46.4 °F 42.9 °F 28.4 °F 50% 30.07 in 20.0 mi South 6.9 mph - N/A   Mostly Cloudy
5:00 PM 42.8 °F 38.0 °F 33.8 °F 70% 30.07 in 20.0 mi SSW 8.1 mph 18.4 mph N/A   Overcast
6:00 PM 41.0 °F 35.8 °F 33.8 °F 76% 30.06 in 20.0 mi South 8.1 mph - N/A   Overcast
7:00 PM 42.8 °F 38.6 °F 32.0 °F 66% 30.06 in 20.0 mi SSE 6.9 mph - N/A   Overcast
7:55 PM 42.8 °F 38.6 °F 32.0 °F 66% 30.06 in 12.0 mi SSE 6.9 mph - N/A Rain Light Rain
8:00 PM 41.0 °F 33.1 °F 32.0 °F 70% 30.07 in 12.0 mi South 15.0 mph - N/A Rain Light Rain
9:00 PM 39.2 °F 31.2 °F 33.8 °F 81% 30.06 in 10.0 mi SSE 13.8 mph - N/A Rain Light Rain
10:00 PM 38 °F - 35 °F 86% 30.04 in 12 mi East 17.3 mph - - Rain Light Rain
10:00 PM 37.4 °F 28.2 °F 35.6 °F 93% 30.04 in 12.0 mi East 16.1 mph 24.2 mph N/A Rain Light Rain
11:00 PM 37.4 °F 28.9 °F 35.6 °F 93% 29.99 in 10.0 mi ENE 13.8 mph - N/A Rain Light Rain
11:51 PM 37.4 °F 28.5 °F 33.8 °F 87% 29.98 in 10.0 mi ENE 15.0 mph 23.0 mph N/A Rain Light Rain